Location: Tel Aviv
(32.0670°N, 34.7670°E)
Time: 00:52:51
(UTC+02:00)

Envisat - Pass Details

Date: 03 December 2021
Orbit: 764 x 766 km, 98.2° (Epoch: 26 January)

Event Time Altitude Azimuth Distance (km) Brightness Sun altitude
Rises 04:51:59 0° 7° (N) 3,236 6.2 -19.4°
Reaches altitude 10° 04:54:19 10° 4° (N) 2,306 5.4 -18.9°
Maximum altitude 04:59:19 61° 285° (WNW) 863 2.9 -17.9°
Drops below altitude 10° 05:04:18 10° 206° (SSW) 2,292 5.4 -16.9°
Sets 05:06:37 0° 202° (SSW) 3,214 6.2 -16.4°
